Location: Gradaro
(45.0833°N, 10.8833°E)
Time: 10:00:12
(UTC+00:00)

Cosmos 1812 - Pass Details

Date: 29 November 2020
Orbit: 517 x 520 km, 82.5° (Epoch: 24 January)

Event Time Altitude Azimuth Distance (km) Brightness Sun altitude
Exits shadow 05:42:36 - 337° (NNW) 2,336 5.6 -8.8°
Reaches altitude 10° 05:44:09 10° 328° (NNW) 1,758 4.9 -8.5°
Maximum altitude 05:47:26 27° 270° (W) 1,018 3.7 -8.0°
Drops below altitude 10° 05:50:42 10° 211° (SSW) 1,746 5.3 -7.5°
Sets 05:53:02 0° 199° (SSW) 2,629 6.4 -7.1°
